sat.trackr.live / text

‹ back to catalog

SIT-2086

NORAD 61764 · 2024-199AF

PAYLOAD ACTIVE UNKNOWN

§ Identity

Operator
Country
CIS
Launch date
2024-11-04
Launch site
VOSTO
Launch vehicle
Mass (kg)
RCS (m²)

Purposes: comms

External: N2YO · Heavens-Above · Gunter

§ Orbital elements

Epoch: 2026-05-25T04:22:36.901056Z

Period
92.82 min
Inclination
97.2983°
Eccentricity
0.0006575
Mean motion
15.51316295 rev/d
Perigee alt
408.4 km
Apogee alt
417.3 km
Semi-major
6,791.0 km
B*
5.9749e-4
RAAN
21.1453°
Arg perigee
6.2566°
Mean anomaly
353.8767°
Rev number
13,086

§ Raw data

SIT-20861 61764U 24199AF  26145.18237154  .00035116  00000+0  59749-3 0  99902 61764  97.2983  21.1453 0006575   6.2566 353.8767 15.51316295130863

JSON: /api/v1/satellites/61764 · /tle

For live sub-satellite position, see the globe view (requires WebGL).

§ Visibility from observer

Set your observer location to see the next 7 days of passes ≥ 10°. The values pass through the URL so the page stays shareable.

No JS? Fill the form by hand. The geolocation button needs JavaScript.

§ Radio — SatNOGS DB

ModeDescriptionDownlinkUplink
GMSK USP Mode U - GMSK2k4 USP 401.030 MHz

1 transmitter · refreshed weekly from db.satnogs.org